Location: Kawakawa
(35.3830°S, 174.0670°E)
Time: 17:31:59
(UTC+13:00)

Altair - Pass Details

Date: 13 December 2019
Orbit: 1502 x 1682 km, 47.2° (Epoch: 24 January)

Event Time Altitude Azimuth Distance (km) Brightness Sun altitude
Rises 07:53:36 0° 336° (NNW) 4,684 9.7 20.2°
Reaches altitude 10° 07:56:50 10° 343° (NNW) 3,729 9.3 20.8°
Maximum altitude 08:05:27 41° 49° (NE) 2,188 9.1 22.5°
Drops below altitude 10° 08:14:25 10° 114° (ESE) 3,886 11.4 24.3°
Sets 08:17:50 0° 121° (ESE) 4,899 11.3 25.0°
